FW7881 Weather Reports


Display with metric or nautical units.
time (UTC)temp
F
wind
direction
speed
MPH
gust
MPH
rain 1hr
in
rain 24hr
in
rain mn
in
humidity
%
barometer
mb
20220127073103 29 0 1.0 3.0 0.00 0.00 0.00 81 1009.4
20220127071621 29 224 1.0 3.0 0.00 0.00 0.00 80 1009.3
20220127070114 29 236 1.0 5.0 0.00 0.00 0.00 81 1009.3
20220127064604 29 236 1.0 2.0 0.00 0.00 0.00 82 1009.4
20220127063122 29 229 2.0 3.0 0.00 0.00 0.00 81 1009.3
20220127061558 28 204 2.0 6.0 0.00 0.00 0.00 80 1009.4
20220127060122 28 238 2.0 7.0 0.00 0.00 0.00 78 1009.5
20220127054740 27 237 2.0 4.0 0.00 0.00 0.00 78 1009.4
20220127053146 27 234 2.0 5.0 0.00 0.00 0.00 78 1009.3
20220127051637 27 224 2.0 6.0 0.00 0.00 0.00 78 1009.2
20220127050120 26 198 4.0 8.0 0.00 0.00 0.00 77 1009.1
20220127044614 26 212 3.0 7.0 0.00 0.00 0.00 77 1009.1
20220127043120 26 244 2.0 8.0 0.00 0.00 0.00 77 1009.2
20220127041625 25 198 2.0 7.0 0.00 0.00 0.00 77 1009.1
20220127040055 25 212 4.0 11.0 0.00 0.00 0.00 76 1009.2
20220127034622 25 166 4.0 10.0 0.00 0.00 0.00 76 1009.2
20220127033056 24 202 3.0 10.0 0.00 0.00 0.00 76 1009.2
20220127031700 24 216 3.0 12.0 0.00 0.00 0.00 76 1009.4
20220127030200 24 237 5.0 13.0 0.00 0.00 0.00 75 1009.4
20220127024556 24 238 6.0 14.0 0.00 0.00 0.00 75 1009.3
20220127023134 24 228 8.0 15.0 0.00 0.00 0.00 74 1009.4
20220127021545 24 214 7.0 15.0 0.00 0.00 0.00 74 1009.6
20220127020043 24 186 8.0 16.0 0.00 0.00 0.00 74 1009.8
20220127014557 24 212 7.0 17.0 0.00 0.00 0.00 73 1009.8
20220127013115 24 282 7.0 21.0 0.00 0.00 0.00 73 1009.7
20220127011627 24 302 9.0 18.0 0.00 0.00 0.00 73 1010.0
20220127010050 23 182 9.0 18.0 0.00 0.00 0.00 73 1009.9
20220127004625 23 190 8.0 21.0 0.00 0.00 0.00 74 1010.1
20220127003146 23 198 7.0 17.0 0.00 0.00 0.00 74 1010.3
20220127001648 23 200 8.0 22.0 0.00 0.00 0.00 74 1010.6
20220127000117 22 218 7.0 16.0 0.00 0.00 0.00 74 1010.6
20220126234847 22 239 7.0 23.0 0.00 0.00 0.00 74 1010.6
20220126233100 22 203 9.0 21.0 0.00 0.00 0.00 74 1010.8
20220126231558 21 299 8.0 16.0 0.00 0.00 0.00 74 1011.2
20220126230229 21 212 8.0 19.0 0.00 0.00 0.00 73 1011.0
20220126224617 21 262 7.0 20.0 0.00 0.00 0.00 73 1011.2
20220126223218 21 172 8.0 20.0 0.00 0.00 0.00 73 1011.1
20220126221605 20 150 7.0 18.0 0.00 0.00 0.00 73 1011.4
20220126220120 19 216 7.0 14.0 0.00 0.00 0.00 72 1011.6
20220126214606 18 219 8.0 19.0 0.00 0.00 0.00 72 1011.8
20220126213054 18 205 7.0 19.0 0.00 0.00 0.00 71 1012.0
20220126211737 18 210 7.0 21.0 0.00 0.00 0.00 70 1012.1
20220126210201 17 177 9.0 20.0 0.00 0.00 0.00 70 1012.5
20220126204710 17 250 9.0 22.0 0.00 0.00 0.00 70 1012.8
20220126203109 16 209 6.0 24.0 0.00 0.00 0.00 70 1012.8
20220126201623 16 246 8.0 21.0 0.00 0.00 0.00 69 1013.4
20220126200117 16 212 8.0 25.0 0.00 0.00 0.00 69 1013.3
20220126194719 15 191 9.0 20.0 0.00 0.00 0.00 69 1014.0
20220126193151 15 209 10.0 23.0 0.00 0.00 0.00 69 1014.4
20220126191719 14 164 9.0 21.0 0.00 0.00 0.00 70 1014.6
20220126190139 14 159 10.0 22.0 0.00 0.00 0.00 70 1015.0
20220126184714 13 194 11.0 18.0 0.00 0.00 0.00 68 1015.5
20220126183114 13 164 7.0 17.0 0.00 0.00 0.00 67 1015.8
20220126181649 12 162 10.0 20.0 0.00 0.00 0.00 66 1016.5
20220126180114 12 191 12.0 19.0 0.00 0.00 0.00 64 1017.2
20220126174604 11 207 8.0 19.0 0.00 0.00 0.00 63 1018.2
20220126173102 9 255 8.0 17.0 0.00 0.00 0.00 62 1018.4
20220126171600 7 153 7.0 13.0 0.00 0.00 0.00 60 1019.0
20220126170116 6 185 6.0 12.0 0.00 0.00 0.00 61 1019.4
20220126164617 3 200 7.0 13.0 0.00 0.00 0.00 62 1019.8
20220126163155 2 202 5.0 11.0 0.00 0.00 0.00 63 1020.4
20220126161616 0 233 5.0 11.0 0.00 0.00 0.00 65 1020.3
20220126160222 -1 200 6.0 12.0 0.00 0.00 0.00 67 1020.6
20220126154637 -1 209 6.0 14.0 0.00 0.00 0.00 68 1021.0
20220126153241 -3 157 9.0 14.0 0.00 0.00 0.00 70 1021.6
20220126151651 -5 193 4.0 9.0 0.00 0.00 0.00 74 1022.0
20220126150112 -7 166 4.0 8.0 0.00 0.00 0.00 75 1022.7
20220126144632 -8 211 2.0 7.0 0.00 0.00 0.00 76 1023.0
20220126143116 -9 217 4.0 7.0 0.00 0.00 0.00 76 1023.4
20220126141606 -11 219 3.0 7.0 0.00 0.00 0.00 77 1023.5
20220126140044 -12 200 4.0 9.0 0.00 0.00 0.00 78 1023.8
20220126134601 -13 214 3.0 7.0 0.00 0.00 0.00 78 1024.1
20220126133132 -14 198 4.0 9.0 0.00 0.00 0.00 79 1024.3
20220126131619 -14 208 2.0 5.0 0.00 0.00 0.00 78 1024.7
20220126130128 -15 231 2.0 4.0 0.00 0.00 0.00 78 1024.9
20220126124602 -15 194 2.0 5.0 0.00 0.00 0.00 78 1025.0
20220126123131 -16 174 3.0 6.0 0.00 0.00 0.00 78 1025.1
20220126121611 -16 197 3.0 6.0 0.00 0.00 0.00 78 1025.3
20220126120210 -16 172 2.0 4.0 0.00 0.00 0.00 78 1025.3
20220126114606 -17 212 1.0 5.0 0.00 0.00 0.00 78 1026.0
20220126113112 -17 232 3.0 4.0 0.00 0.00 0.00 78 1026.3
20220126111558 -17 208 1.0 3.0 0.00 0.00 0.00 78 1026.6
20220126110145 -17 0 0.0 0.0 0.00 0.00 0.00 78 1026.8
20220126104648 -17 0 0.0 0.0 0.00 0.00 0.00 78 1027.0
20220126103140 -17 0 0.0 1.0 0.00 0.00 0.00 78 1027.3
20220126101608 -17 210 0.0 2.0 0.00 0.00 0.00 78 1027.6
20220126100102 -17 215 0.0 1.0 0.00 0.00 0.00 78 1027.9
20220126094617 -17 224 0.0 1.0 0.00 0.00 0.00 78 1028.0
20220126093115 -17 207 0.0 1.0 0.00 0.00 0.00 78 1028.2
20220126091726 -16 207 0.0 1.0 0.00 0.00 0.00 78 1028.5
20220126090240 -16 213 0.0 1.0 0.00 0.00 0.00 78 1028.6
20220126084715 -16 209 0.0 1.0 0.00 0.00 0.00 78 1028.8
20220126083121 -16 0 0.0 2.0 0.00 0.00 0.00 78 1029.0
20220126081603 -16 207 1.0 2.0 0.00 0.00 0.00 78 1029.0
20220126080103 -16 0 0.0 1.0 0.00 0.00 0.00 78 1029.4
20220126074609 -16 0 0.0 1.0 0.00 0.00 0.00 78 1029.5
20220126073121 -15 217 0.0 1.0 0.00 0.00 0.00 78 1029.4